SL-8 DEB

基本信息
目录编号:
27768
目录名称:
SL-8 DEB
国际标识:
2002-054D
轨道中心:
EARTH
物体状态:
在轨
发射日期:
2002-11-28 UTC
轨道信息
数据来源: 国际轨道数据
星历时间: 2026-09-11T10:24:16+0800
半长轴: 7015.995km
偏心率: 0.0025624
轨道倾角: 98.249°
近地点辐角: 279.146°
升交点赤经: 130.792°
平近点角: 80.685°
近地点: 619.88km
远地点: 655.836km
周期: 97.475分钟
每日圈数: 14.773008
详细信息
发射场:
PKMTR
轨道高度:
LEO
数据来源:
AOE Integration Group
参考系:
TEME
时间系统:
UTC
历元类型:
SGP4
2D轨道图
3D轨道图
轨道高度分析图
轨道倾角分析图
轨道综合分析图
查看轨道综合分析图